{"data":{"norad_id":64917,"intl_designator":"2025-157P","name":"STARLINK-34653","alt_names":[],"object_type":"PAYLOAD","status":"ACTIVE","operator":null,"country":"US","launch_date":"2025-07-26","launch_site_code":"AFETR","launch_vehicle":null,"mission":null,"orbit_class":"UNKNOWN","rcs_meters":null,"size_class":null,"mass_kg":null,"dimensions":null,"purposes":["comms"],"wikipedia_slug":null,"has_3d_model":false,"image_url":null,"decayed_at":null,"tle_current":{"epoch":"2026-09-20T02:02:02.537376Z","epoch_age_seconds":160201,"freshness":"FRESH","line1":"1 64917U 25157P   26263.08475159  .00012157  00000+0  40274-3 0  9990","line2":"2 64917  53.1578 161.5034 0002388  70.1829 289.9430 15.31710368 65850","mean_motion":15.31710368,"eccentricity":0.0002388,"inclination_deg":53.1578,"raan_deg":161.5034,"arg_perigee_deg":70.1829,"mean_anomaly_deg":289.943,"bstar":0.00040274,"rev_number":6585,"period_min":94.012551594872,"perigee_km":469.07358448545,"apogee_km":472.34459337753,"semimajor_km":6848.8460889315,"source":"CELESTRAK","updated_at":"2026-09-21T09:00:35.482214Z"}}}